Skip Page Navigation
NASA JPL Caltech
NASA Logo - Jet Propulsion Laboratory + View the NASA Portal
+ Center for Near-Earth Object Studies
JPL Home Earth Solar System Stars & Galaxies Technology
JPL Solar System Dynamics
BODIES ORBITS EPHEMERIDES TOOLS PHYSICAL DATA DISCOVERY FAQ SITE MAP
JPL Small-Body Database Browser
Search: [ help ]  
186935 (2004 PV104)
Classification: Main-belt Asteroid          SPK-ID: 2186935
Ephemeris | Orbit Diagram | Orbital Elements | Mission Design | Physical Parameters | Discovery Circumstances ]

[ show orbit diagram ]
Orbital Elements at Epoch 2459200.5 (2020-Dec-17.0) TDB
Reference: JPL 18 (heliocentric ecliptic J2000)
 Element Value Uncertainty (1-sigma)   Units 
e .110400200263403 5.6008e-08  
a 2.932628681555659 3.4552e-08 au
q 2.608865887813715 1.5689e-07 au
i 10.94726502602737 6.2591e-06 deg
node 47.52325414273972 3.1102e-05 deg
peri 337.7186145194861 4.2513e-05 deg
M 40.89200551030391 2.8585e-05 deg
tp 2458992.137311096315
(2020-May-22.63731110)
0.00014576 TDB
period 1834.357769183652
5.02
3.2419e-05
8.876e-08
d
yr
n .196253972942373 3.4684e-09 deg/d
Q 3.256391475297604 3.8367e-08 au
  Orbit Determination Parameters
   # obs. used (total)      429  
   data-arc span      7396 days (20.25 yr)  
   first obs. used      2000-12-06  
   last obs. used      2021-03-07  
   planetary ephem.      DE441  
   SB-pert. ephem.      SB441-N16  
   condition code      0  
   norm. resid. RMS      .55473  
   source      ORB  
   producer      Otto Matic  
   solution date      2021-Apr-13 21:53:18  

Additional Information
 Earth MOID = 1.61627 au 
 Jupiter MOID = 2.18753 au 
 T_jup = 3.239 
[ show covariance matrix ]

Ephemeris | Orbit Diagram | Orbital Elements | Mission Design | Physical Parameters | Discovery Circumstances ]

Physical Parameter Table
Parameter Symbol Value Units Sigma Reference Notes
absolute magnitude H 15.33   n/a MPCxxxxx  

186935 (2004 PV104)          Discovered 2004-Aug-15 by Broughton, J. at Reedy Creek
Reference: 20080520/Numbers.arcLast Updated: 2008-05-22
Ephemeris | Orbit Diagram | Orbital Elements | Mission Design | Physical Parameters | Discovery Circumstances ]
ABOUT SSD CREDITS/AWARDS PRIVACY/COPYRIGHT GLOSSARY LINKS
FirstGov 2021-Jun-23 06:47 UT
(server date/time)  
NASA Home Page
Site Manager:   Ryan S. Park
Webmaster  Alan B. Chamberlin